Weather Roundup
Issued by NWS Chicago, IL

Home | Current Version | Previous Version | Graphics & Text | Print | Product List | Glossary On
Versions: 1 2 3 4 5 6 7 8 9 10 11 12 13 14 15 16 17 18 19 20 21 22 23 24 25 26 27 28 29 30 31 32 33 34 35 36 37 38 39 40 41 42 43 44 45 46 47 48 49 50
000
NZUS59 KLOT 260208
HRRLOT

CHICAGO AREA WEATHER ROUNDUP
NATIONAL WEATHER SERVICE CHICAGO/ROMEOVILLE IL
900 PM CDT MON MAY 25 2015

NOTE: "FAIR" INDICATES FEW OR NO CLOUDS BELOW 12,000 FEET WITH NO
SIGNIFICANT WEATHER AND/OR OBSTRUCTIONS TO VISIBILITY.

* THESE STATIONS ARE NOT UNDER NWS QUALITY CONTROL. THEY ALSO MAY NOT
  REPORT WEATHER SUCH AS PRECIPITATION OR FOG.

ILZ005-006-012>014-019>023-260300-
NORTHEAST ILLINOIS

CITY           SKY/WX    TMP DP  RH WIND       PRES   REMARKS
OHARE          PTCLDY    73  60  63 S6        29.91R
MIDWAY         PTCLDY    77  60  55 S5        29.92R
AURORA         CLEAR     71  59  65 S8        29.92R
LANSING*       MOCLDY    67  56  65 S9        29.94R
JOLIET*        PTCLDY    74  60  61 SW6       29.93R
WAUKEGAN       PTCLDY    70  59  68 SW8       29.90R
DUPAGE AIRPORT CLEAR     67  60  78 S6        29.92R
WHEELING       PTCLDY    70  58  65 S5        29.93R
KANKAKEE*      PTCLDY    74  64  70 S14       29.97R
MORRIS*        CLEAR     73  60  63 SW9       29.92R
LEWIS AIRPORT* CLEAR     71  58  63 SW9       29.93R
NORTHERLY IS     N/A     76  57  51 S5          N/A
$$

WIZ051-052-058>065-066-070>072-260300-
SOUTHEAST WISCONSIN

CITY           SKY/WX    TMP DP  RH WIND       PRES   REMARKS
MILWAUKEE      PTCLDY    72  60  66 SW9       29.88R
KENOSHA*       CLEAR     73  61  65 SW8       29.90R
RACINE*        PTCLDY    72  60  66 SW8       29.90R
BURLINGTON     CLEAR     68  59  74 SW8       29.90R
WAUKESHA       PTCLDY    72  61  68 S12       29.89R
WEST BEND      CLEAR     70  59  68 S6        29.87R
$$

INZ001>003-010>013-019-020-260300-
NORTHWEST INDIANA

CITY           SKY/WX    TMP DP  RH WIND       PRES   REMARKS
GARY*          PTCLDY    72  59  64 S8        29.92F
MICHIGAN CITY* NOT AVBL
RENSSELAER*    NOT AVBL
VALPARAISO     CLOUDY    74  56  53 S8        29.96R
$$

LMZ740>746-260300-
SOUTHERN LAKE MICHIGAN

STATION/POSITION TIME  SKY/WX   TEMP WIND        PRES    VSBY
                                AIR  DIR/SP/G
                 (UTC)          (F)  (DEG/KT/KT) (MB)    (MI)
HARRISON CRIB    0100            77  210/ 15/ 18   N/A
BURNHAM HARBOR   0200            76  200/  7/  8   N/A
CALUMET HARBOR   0100            78  200/  5/  6   N/A
BURNS HARBOR     0100            77  210/  8/ 10 1013.9F
MICHIGAN CITY    0100            78  170/  9/ 11   N/A
$$

ABBREVIATIONS USED IN REMARKS
   TC - TEMPERATURE IN CELSIUS
  WCI - WIND CHILL INDEX
   HX - HEAT INDEX
  VSB - VISIBILITY
$$


USA.gov is the U.S. government's official web portal to all federal, state and local government web resources and services.